Regional Weather Roundup
Issued by NWS

Home | Current Version | Previous Version | Graphics & Text | Print | Product List | Glossary On
Versions: 1 2 3 4 5 6 7 8 9 10 11 12 13 14 15 16 17 18 19 20 21 22 23 24 25 26 27 28 29 30 31 32 33 34 35 36 37 38 39 40 41 42 43 44 45 46 47 48 49 50
000
ASUS43 KLMK 111110
RWRKY
KENTUCKY REGIONAL WEATHER ROUNDUP
NATIONAL WEATHER SERVICE LOUISVILLE KY
600 AM EST SUN DEC 11 2016

NOTE "FAIR" INDICATES FEW OR NO CLOUDS BELOW 12,000 FEET
WITH NO SIGNIFICANT WEATHER AND/OR OBSTRUCTIONS TO VISIBILITY.

KYZ001>023-026-027-061>063-070>075-111200-
WESTERN AND SOUTH CENTRAL KENTUCKY

CITY           SKY/WX    TMP DP  RH WIND       PRES   REMARKS
PADUCAH        CLOUDY    42  15  33 VRB6      30.17F
HENDERSON      CLOUDY    36  21  55 S7        30.20F WCI  30
OWENSBORO      CLOUDY    35  20  54 SE6       30.23F WCI  30
HOPKINSVILLE   CLOUDY    35  17  46 S7        30.23F WCI  30
BOWLING GREEN  CLOUDY    35  19  52 S6        30.27F WCI  30
GLASGOW        CLOUDY    33  18  53 S6        30.27F WCI  27
$$

KYZ024-025-028>034-038-045-046-053-111200-
NORTH CENTRAL KENTUCKY

CITY           SKY/WX    TMP DP  RH WIND       PRES   REMARKS
LOUISVILLE/SDF CLOUDY    32  16  51 SE7       30.27F WCI  26
LOUISVILLE/LOU CLOUDY    33  17  51 SE3       30.28F
FORT KNOX      CLOUDY    33  19  56 E6        30.23F WCI  27
$$

KYZ035>037-039>044-047>052-055>060-089>105-111200-
NORTHEAST KENTUCKY

CITY           SKY/WX    TMP DP  RH WIND       PRES   REMARKS
LEXINGTON      CLOUDY    31  16  54 S7        30.29F WCI  24
COVINGTON      CLOUDY    30  18  60 SE10      30.28F WCI  21
FRANKFORT      CLOUDY    32  16  51 SE5       30.28F WCI  27
$$

KYZ054-064>069-076>088-106>120-111200-
SOUTHEAST KENTUCKY

CITY           SKY/WX    TMP DP  RH WIND       PRES   REMARKS
JACKSON        PTCLDY    28  14  55 SE3       30.30R
LONDON         CLOUDY    24  15  68 CALM      30.30F
SOMERSET       CLOUDY    23  18  80 CALM      30.33R
MIDDLESBORO    CLOUDY    21  19  91 CALM      30.34F
MONTICELLO     MOSUNNY   26  18  71 VRB7      30.32F WCI  18
$$




USA.gov is the U.S. government's official web portal to all federal, state and local government web resources and services.